Overview Statistics Trail Chart Weather Telemetry Raw packets
 

This is the latest recevied weather packets stored in our database for station/object DK6GC-10. If no packets are shown the sender has not sent any weather packets the latest 10 day(s).

<< 1 2 3 4 5 6 7 >>
Time Temp. Humidity Pressure Rain* Wind** Luminosity Snow
1788642022 14.44° C 70% 1026.8 hPa - - - -
1788641122 15° C 70% 1026.6 hPa - - - -
1788640222 14.44° C 72% 1026.5 hPa - - - -
1788639321 15° C 67% 1026.4 hPa - - - -
1788638421 15.56° C 70% 1026.4 hPa - - - -
1788637521 16.11° C 68% 1026.3 hPa - - - -
1788636621 16.11° C 66% 1026.2 hPa - - - -
1788635720 16.11° C 65% 1026 hPa - - - -
1788634820 16.67° C 66% 1025.9 hPa - - - -
1788633919 16.67° C 70% 1025.8 hPa - - - -
1788633019 17.22° C 65% 1025.7 hPa - - - -
1788632119 18.33° C 66% 1025.3 hPa - - - -
1788631229 18.89° C 61% 1025.2 hPa - - - -
1788630329 19.44° C 61% 1025 hPa - - - -
1788629428 20.56° C 55% 1025 hPa - - - -
1788628528 21.11° C 54% 1024.8 hPa - - - -
1788627628 22.22° C 45% 1024.9 hPa - - - -
1788626727 22.78° C 48% 1024.7 hPa - - - -
1788625827 23.33° C 45% 1024.6 hPa - - - -
1788624927 23.89° C 42% 1024.4 hPa - - - -
1788624027 24.44° C 44% 1024.3 hPa - - - -
1788623127 25° C 40% 1024.4 hPa - - - -
1788622226 25.56° C 100% 1277.5 hPa - - - -
1788621322 25.56° C 39% 1024.4 hPa - - - -
1788620421 25.56° C 40% 1024.4 hPa - - - -

* Rain since midnight (hover to see other rain measurements)
** Current wind speed in m/s (hover to see current wind gust speed)